GFSNGP_925_thetae_057.txt.gz
Theta_e
322 323 324 325 326 325 326 324 327 326 338 337 339 339 338 333 331 334 335 339 348 347 345 347 351 352 352 350 348 346 344 344 343 343 342 342 340 339 339 338 338 337 335 335
323 325 327 327 326 327 328 328 329 337 340 333 336 334 333 332 330 335 339 347 350 347 345 346 350 351 351 350 349 346 343 344 344 344 342 342 341 340 340 339 337 336 336 334
329 326 326 321 325 327 329 331 332 337 334 335 338 339 336 333 334 338 343 353 350 347 346 347 348 349 350 350 349 345 342 343 342 344 344 342 341 340 340 339 337 336 336 334
332 326 326 321 326 329 335 342 341 333 331 334 337 337 335 333 335 337 345 355 349 345 346 347 347 346 347 348 348 346 344 342 343 343 343 342 341 341 339 338 338 337 333 332
327 328 328 332 336 336 335 334 341 339 335 335 335 341 346 350 334 337 349 350 351 349 347 347 349 348 348 347 345 345 342 341 341 344 344 342 340 339 337 337 336 336 335 327
327 325 329 331 344 341 336 336 336 339 338 336 344 341 340 350 349 349 349 351 351 351 347 345 346 347 348 346 346 344 344 343 342 343 341 340 339 337 335 336 333 336 334 329
324 324 328 337 337 339 339 332 333 334 334 336 341 338 344 346 348 346 347 348 348 348 345 343 345 348 346 345 345 344 344 342 341 340 339 338 337 336 335 332 333 333 333 333
324 325 328 334 336 339 332 329 333 335 337 339 337 346 344 343 344 344 343 343 344 342 344 347 347 346 343 341 340 341 340 339 336 334 334 333 338 338 336 333 332 334 331 333
336 334 331 332 330 328 324 329 335 333 334 336 336 340 343 341 343 341 342 340 340 342 344 345 345 345 342 341 341 340 338 335 335 337 338 338 337 337 337 333 333 334 334 333
329 332 331 332 327 326 327 329 330 334 336 335 335 334 337 338 341 340 340 338 338 338 339 340 343 342 342 342 341 339 339 337 336 335 334 334 333 333 333 335 337 335 336 335
329 327 326 330 326 325 326 328 331 331 329 330 333 331 331 335 340 339 339 337 336 336 336 335 337 338 337 336 337 336 335 334 333 332 331 330 330 329 329 330 331 332 334 336
324 325 326 325 325 324 328 329 328 327 326 331 331 334 340 339 340 339 337 335 333 333 332 333 332 332 332 333 333 332 331 331 332 331 331 330 329 328 327 327 327 329 330 331
324 327 325 325 324 326 328 325 325 328 332 333 334 335 339 339 339 340 337 335 335 334 334 334 333 332 331 331 331 330 329 329 329 330 330 329 328 328 326 325 325 326 328 329
325 325 325 324 324 325 327 327 327 326 329 334 333 328 324 336 337 336 336 337 336 336 336 335 335 334 333 332 331 331 330 329 328 328 327 328 328 327 326 325 324 324 325 327
326 324 322 321 321 322 326 329 329 330 328 327 330 331 331 330 330 330 332 336 335 335 335 335 335 334 334 334 333 332 332 331 330 329 328 328 328 327 327 327 325 325 325 325
322 322 322 324 323 325 328 328 327 328 328 328 329 329 329 329 329 329 331 332 328 326 325 324 325 325 326 331 334 333 333 332 331 330 330 329 328 327 327 327 326 326 326 326
321 326 324 324 326 327 327 326 326 326 326 326 326 328 326 325 325 325 325 323 322 321 322 323 323 324 324 324 324 326 330 332 332 331 331 330 329 328 327 327 326 326 326 327
323 322 323 324 326 325 325 325 324 324 323 323 323 323 322 321 320 322 322 322 321 320 320 320 320 321 321 321 321 322 323 324 328 330 330 329 329 328 327 327 326 324 324 322
321 324 325 325 322 322 324 324 323 322 322 321 319 318 318 318 319 320 319 317 316 315 315 316 317 318 319 319 319 319 320 320 321 325 327 328 328 328 326 325 323 318 317 317
321 323 323 323 323 323 322 321 321 320 319 319 318 317 315 315 316 316 316 314 313 313 313 314 314 314 315 315 315 316 317 318 318 321 326 327 327 327 325 323 318 317 316 317
319 321 321 322 322 322 321 320 319 318 317 317 316 315 314 313 314 314 313 312 313 314 315 314 315 316 318 318 317 316 315 318 321 322 324 325 325 325 323 320 317 317 317 316
318 319 320 321 320 320 320 319 318 316 315 314 313 313 313 313 313 312 312 312 313 314 315 315 315 317 318 319 319 319 319 319 320 321 322 323 322 320 318 317 316 315 316 316
317 317 319 320 319 320 319 317 315 314 313 313 313 312 312 312 312 311 313 314 315 315 314 313 313 315 315 315 315 315 315 315 315 315 315 315 315 314 314 313 313 314 314 315
318 319 320 320 320 319 316 315 315 314 313 313 312 312 312 311 313 314 313 313 314 313 312 312 312 313 313 313 313 313 313 312 312 313 313 313 313 313 313 313 313 313 313 312
319 319 319 319 318 317 317 315 315 314 314 314 313 312 313 312 312 312 312 311 310 310 310 311 311 312 312 312 312 311 311 311 311 311 311 311 311 311 311 311 312 312 310 310
317 318 318 317 318 319 317 316 314 315 314 313 313 312 312 312 312 312 311 310 310 309 308 308 309 310 309 309 310 309 310 310 310 310 310 309 309 309 309 309 309 309 309 309
319 318 318 317 318 319 318 316 315 315 315 314 313 313 312 311 310 310 310 310 309 309 309 308 307 307 308 308 308 308 308 308 308 308 308 308 308 308 307 306 306 304 303 302

GFSNGP_925_thetae_060.txt.gz
Theta_e
320 318 323 324 325 325 324 322 326 325 326 327 332 342 343 336 333 334 334 334 340 344 342 343 347 350 352 352 350 348 345 344 343 343 342 341 340 339 339 338 338 337 336 336
323 322 325 326 325 325 325 323 328 330 332 328 331 333 336 337 332 332 333 335 339 345 344 344 347 350 352 350 347 346 344 344 343 343 342 342 341 339 339 338 338 337 336 335
327 327 324 323 321 325 328 328 331 333 329 329 334 338 336 334 332 333 332 337 345 348 345 344 348 351 351 349 348 346 344 343 342 344 343 341 341 340 339 339 338 337 335 334
329 325 328 322 328 330 335 340 339 338 334 332 329 332 335 331 332 333 335 340 348 346 345 346 350 351 350 349 348 347 343 341 342 342 343 343 342 340 339 339 337 337 336 335
327 326 326 332 342 343 343 335 336 337 337 337 334 334 334 337 332 332 334 338 348 347 346 347 347 347 346 347 348 346 344 343 341 341 342 342 342 340 339 339 336 337 337 336
326 324 327 339 338 335 338 334 334 335 337 336 338 338 335 345 346 334 332 341 349 348 346 346 346 347 346 346 345 344 344 342 341 341 342 341 339 338 338 337 337 335 333 334
319 321 325 335 333 332 336 330 330 334 335 337 337 337 342 345 344 341 342 346 349 348 346 347 347 347 346 344 343 344 343 342 341 341 340 339 337 337 336 334 334 334 334 333
321 322 325 331 331 337 331 327 330 332 334 337 336 337 341 344 344 342 341 341 343 342 341 342 344 346 343 342 341 342 341 339 338 337 336 334 335 336 336 334 333 333 332 332
333 331 328 330 328 326 325 328 330 334 334 335 336 336 335 341 342 342 340 339 340 341 343 344 343 344 341 339 339 338 336 334 334 335 335 336 335 335 334 333 332 334 333 332
329 331 330 330 327 325 325 326 326 328 330 330 333 334 334 334 340 340 339 338 336 340 339 339 341 341 341 340 339 338 337 336 336 335 335 334 333 332 333 334 334 333 333 333
327 323 324 329 326 325 325 327 328 329 329 328 328 332 332 331 335 340 338 339 337 338 340 340 341 341 341 340 339 338 336 335 334 333 333 331 330 329 328 328 328 330 332 332
322 321 326 325 324 324 328 327 325 326 326 328 331 330 332 332 331 339 338 337 336 336 336 336 337 337 336 335 335 334 333 332 332 331 331 330 329 328 327 326 326 325 326 328
322 325 324 325 325 324 327 325 326 328 327 327 327 328 329 337 333 339 335 333 332 333 334 333 332 331 331 330 330 330 329 329 330 330 330 329 328 326 326 326 325 324 324 324
322 325 324 324 324 324 324 325 328 328 327 328 329 327 330 329 331 331 332 333 333 332 331 331 330 330 331 331 330 330 329 328 327 327 326 327 327 327 326 326 325 325 324 324
325 323 321 321 321 321 321 325 327 328 329 327 329 329 330 330 329 330 330 329 329 330 330 331 329 327 330 333 332 331 330 329 329 328 327 327 327 327 327 326 326 326 326 326
320 320 321 322 322 323 324 326 326 326 327 328 328 328 329 328 328 327 328 326 323 321 322 323 323 323 325 329 332 332 332 332 331 330 330 329 328 327 327 327 326 326 325 326
316 322 324 323 324 325 324 323 323 324 326 327 326 324 323 323 323 321 319 319 319 319 320 320 319 320 321 322 323 323 323 324 327 329 330 331 330 329 328 327 327 326 326 325
321 322 322 323 323 323 324 323 323 322 322 321 320 320 320 320 320 319 318 318 317 316 316 316 317 318 319 320 320 319 319 319 320 322 324 327 328 328 327 327 327 326 326 323
322 324 323 321 320 322 324 324 323 322 321 320 318 317 317 317 317 316 315 315 314 313 313 314 314 314 314 315 315 316 316 317 317 318 319 322 325 326 326 326 326 325 322 316
320 321 322 321 322 322 321 321 320 319 318 317 316 315 314 314 315 315 313 312 312 312 314 314 316 317 318 318 317 316 315 315 315 318 319 320 323 323 323 322 320 317 316 316
319 319 321 321 321 320 319 318 317 316 316 315 314 312 312 312 313 312 311 312 312 312 313 314 315 316 317 317 317 316 317 316 316 318 319 320 321 320 317 316 315 315 314 315
317 319 319 319 318 317 317 317 315 313 313 312 312 311 311 310 311 312 313 313 313 313 312 312 314 315 315 315 315 314 315 315 315 314 315 316 315 314 313 314 314 314 314 314
315 316 318 318 318 317 315 314 313 313 312 312 311 311 310 309 311 312 313 313 313 312 312 312 313 313 313 314 312 312 313 313 313 313 313 313 313 313 313 313 313 312 311 311
316 317 317 318 317 315 313 313 313 312 312 312 312 312 311 312 312 312 312 311 310 311 311 311 312 312 312 311 311 311 310 311 311 311 311 311 311 311 311 312 311 310 309 309
316 317 317 317 315 314 313 313 312 312 312 311 312 312 312 312 312 311 310 309 309 309 310 310 310 310 310 310 311 311 311 311 310 310 309 309 309 309 310 309 309 309 308 307
315 315 316 316 317 316 314 314 312 312 311 311 311 311 311 311 311 310 309 309 308 307 307 308 308 308 308 308 309 308 309 309 308 308 308 308 307 307 307 306 304 303 302 302
316 317 317 315 317 316 316 314 313 313 313 312 312 312 311 310 310 309 309 309 309 308 308 307 307 307 308 308 308 308 308 308 308 308 308 307 306 305 305 304 303 302 301 301

GFSNGP_925_thetae_063.txt.gz
Theta_e
326 323 325 327 329 328 330 332 332 334 334 337 338 339 343 347 351 345 344 345 348 356 357 352 351 351 351 353 353 351 349 348 347 346 345 344 343 342 341 339 340 338 337 339
331 327 330 328 327 328 328 328 332 335 335 337 338 338 340 342 347 345 344 342 341 350 352 351 349 351 353 354 353 350 349 348 347 346 345 344 343 342 341 339 338 337 336 336
329 333 329 329 327 327 332 335 338 336 340 343 345 345 341 340 340 342 343 341 340 341 350 351 350 351 353 353 351 349 348 347 346 346 345 345 344 343 342 341 338 337 336 335
332 333 331 328 342 339 344 343 343 343 343 343 343 342 342 346 341 340 339 339 340 342 347 351 351 351 353 353 350 349 347 346 346 346 346 346 345 344 343 342 341 340 336 335
332 335 331 340 345 347 348 342 340 343 342 343 344 342 345 346 350 352 340 338 342 350 352 351 350 352 353 352 350 349 347 345 345 345 345 346 344 344 343 340 339 338 337 336
332 332 330 342 338 336 341 344 338 340 342 342 345 339 343 345 345 345 349 340 346 352 351 351 352 352 351 351 350 349 348 346 345 344 345 341 342 343 339 340 338 337 335 335
326 326 332 337 335 335 347 340 337 339 340 341 344 342 342 343 346 343 343 348 347 350 350 350 349 349 349 349 349 347 345 344 344 344 344 343 340 338 338 338 337 337 335 334
327 328 327 334 333 342 338 334 333 336 337 338 340 339 340 341 346 344 342 344 345 343 341 341 343 346 348 348 344 344 343 342 342 340 339 339 339 337 336 337 337 336 335 333
342 337 335 334 332 330 329 330 331 331 332 333 335 335 334 337 342 345 344 344 344 340 334 333 334 336 339 337 338 338 339 337 335 334 334 338 334 334 335 335 335 335 333 335
335 335 334 333 332 329 328 329 330 331 331 332 333 333 333 335 337 343 342 343 338 333 330 329 329 333 339 340 340 336 335 336 336 337 336 336 334 335 335 333 334 335 334 334
329 328 330 332 332 330 328 329 329 329 330 331 333 334 335 336 336 336 342 342 337 335 334 333 334 339 340 339 338 338 336 337 337 336 335 334 332 330 329 328 328 330 331 331
324 328 332 331 329 329 329 328 329 331 332 330 329 332 332 335 336 338 338 341 337 334 336 337 336 336 339 339 338 338 338 337 335 334 333 332 331 330 327 327 326 325 324 324
330 329 330 330 329 328 329 329 328 331 330 331 331 331 331 332 334 335 338 339 339 336 336 336 336 335 334 335 335 335 334 333 331 331 331 331 330 329 329 328 325 325 324 323
328 329 328 328 328 326 326 326 325 330 330 329 329 331 331 330 331 330 329 329 330 330 331 331 331 330 331 330 330 330 331 329 330 330 330 330 330 330 329 329 329 329 327 326
328 329 330 328 327 327 326 328 330 331 331 330 330 331 331 329 329 329 328 328 328 328 326 325 325 327 330 331 331 332 331 331 331 331 330 330 330 330 329 329 329 329 328 328
325 321 324 327 327 327 329 329 330 331 329 328 330 329 327 326 324 322 322 324 325 323 322 321 321 321 326 331 333 333 333 332 331 332 333 332 332 331 331 331 330 329 328 327
324 327 329 330 330 329 329 328 327 329 327 326 327 326 324 321 321 319 318 319 319 318 318 318 318 319 320 321 323 324 325 326 324 328 330 331 332 332 331 331 330 329 329 328
322 328 328 328 328 328 328 327 327 326 326 325 325 325 324 324 321 319 318 317 316 315 315 315 316 315 316 317 318 319 320 321 322 323 325 327 328 329 330 330 330 330 329 328
326 327 325 325 327 327 326 325 325 323 322 322 322 321 320 320 320 318 317 316 316 316 314 315 316 318 318 317 317 317 317 318 318 319 321 322 324 327 328 328 329 327 324 321
324 324 325 326 326 326 326 324 323 321 320 319 319 318 318 317 317 316 315 313 312 312 312 315 317 318 316 318 316 316 317 318 318 319 320 322 324 325 324 320 320 319 319 319
324 324 324 325 324 323 322 321 320 320 318 317 317 316 316 315 315 315 314 313 313 313 314 314 316 316 316 316 316 317 316 316 315 317 318 320 320 320 319 318 318 318 318 317
319 322 322 323 322 321 320 319 317 316 316 315 315 314 313 314 313 314 313 314 313 312 313 313 311 312 312 314 315 314 314 314 315 316 316 316 316 316 315 315 314 314 314 314
319 320 321 322 321 320 317 316 315 315 315 315 314 312 312 312 313 314 314 312 312 312 313 311 311 311 311 312 314 314 313 313 313 313 313 313 313 314 314 313 313 313 313 312
320 321 321 320 320 318 317 315 315 314 314 314 313 313 313 314 312 312 311 310 310 312 311 310 311 311 311 310 310 311 311 311 312 312 312 312 311 311 312 311 311 311 311 311
319 320 321 321 318 316 316 315 314 314 314 314 314 313 313 313 312 311 310 309 309 310 310 308 308 310 311 310 309 309 309 309 310 310 310 310 309 309 308 307 306 306 305 305
319 319 319 319 319 316 315 315 314 313 313 313 313 313 312 312 311 311 310 310 309 309 310 310 309 309 309 309 310 310 309 309 309 308 308 308 307 307 307 306 306 304 303 303
318 317 318 316 318 317 315 315 314 313 312 312 312 312 312 312 310 311 310 311 311 310 310 310 310 309 309 309 310 310 310 309 308 309 309 309 308 308 308 308 307 305 304 303

GFSNGP_925_thetae_069.txt.gz
Theta_e
329 327 329 328 327 326 327 329 330 334 346 347 349 348 347 350 355 356 354 353 359 360 360 358 355 354 353 353 354 352 355 354 351 351 350 349 347 346 345 345 344 344 344 343
331 327 328 327 327 328 328 328 328 328 340 336 346 348 348 348 347 351 355 354 353 355 361 361 359 356 355 354 355 354 355 354 351 351 350 349 348 347 346 345 345 344 344 343
331 328 328 328 327 327 328 328 329 340 349 346 348 353 352 351 352 352 348 348 352 353 352 356 361 359 356 355 357 356 356 354 351 352 350 349 348 346 347 347 347 346 345 344
332 336 342 339 338 332 332 341 341 346 346 346 347 351 350 349 352 353 355 356 350 348 350 349 354 359 358 357 359 358 357 354 352 351 350 350 348 348 349 349 349 347 347 345
330 330 331 340 341 338 335 346 345 347 347 346 345 349 353 348 348 351 354 356 355 346 346 348 347 354 358 359 359 359 357 354 352 351 350 349 349 349 350 350 348 346 345 345
329 330 331 348 343 342 342 346 345 346 348 348 349 342 354 345 345 347 349 351 354 352 350 347 345 354 359 359 357 358 357 353 351 350 349 349 349 349 351 349 346 344 344 343
326 327 328 340 339 341 341 348 342 342 343 345 348 346 344 342 341 340 342 347 349 356 353 358 354 358 357 357 358 358 354 352 351 350 350 349 351 351 348 346 344 344 343 342
328 329 329 338 337 347 344 340 339 339 340 341 341 340 340 340 342 342 342 342 347 349 353 358 356 355 357 358 356 355 353 352 352 351 350 350 350 349 346 345 344 343 342 342
345 346 340 337 338 335 333 336 336 336 336 336 338 340 340 339 339 340 340 340 343 347 348 351 354 354 354 355 354 354 353 352 352 350 349 348 348 345 343 342 342 342 341 340
333 336 336 336 334 333 332 334 333 333 334 334 335 335 336 336 337 338 337 338 339 343 348 350 351 352 349 349 350 350 348 347 346 346 346 345 344 343 342 341 340 340 340 341
334 330 331 332 333 332 332 332 332 333 333 334 335 336 337 336 339 337 337 338 339 340 345 347 349 347 347 345 344 344 344 343 343 343 342 342 342 341 341 341 338 338 337 337
335 333 331 336 332 330 331 332 332 333 334 334 334 335 335 335 334 333 333 333 336 339 343 345 344 344 343 343 343 342 340 340 340 340 341 342 342 338 334 332 331 330 326 326
333 329 329 329 329 328 328 330 332 333 335 335 333 335 332 332 332 333 332 331 330 331 337 340 341 341 342 342 341 341 340 340 340 341 340 337 335 333 334 326 325 324 324 324
327 325 324 327 328 326 327 328 330 332 334 334 334 334 333 330 327 328 330 329 328 326 326 326 326 327 330 335 340 339 339 336 337 335 333 331 330 329 328 331 332 330 325 326
324 325 324 324 326 326 327 329 330 331 334 334 333 333 331 329 326 325 325 325 327 326 325 324 324 324 325 323 326 327 329 330 330 331 331 330 331 329 329 328 328 328 331 327
324 323 324 325 326 327 327 328 331 333 334 332 332 331 328 326 324 322 323 323 322 320 321 324 322 321 323 324 324 323 324 324 324 323 325 331 329 327 328 328 328 329 330 329
324 323 326 325 327 327 329 331 331 331 330 330 330 329 328 328 327 325 322 321 320 319 320 321 320 319 321 323 325 326 321 324 320 321 321 329 329 330 328 327 328 330 331 330
325 326 326 326 326 328 330 328 326 327 328 329 329 329 329 329 328 327 326 323 324 324 322 321 320 321 324 323 321 322 325 326 327 328 326 325 326 326 326 326 327 328 329 328
326 326 325 325 325 325 326 326 324 324 326 325 325 325 325 325 324 324 323 321 323 323 319 319 319 321 321 320 318 321 322 322 322 322 323 323 324 323 325 327 327 326 325 323
326 325 324 324 324 323 323 323 325 325 324 324 324 324 324 323 322 322 321 318 317 318 318 318 319 319 320 319 318 320 320 321 323 323 324 324 325 326 324 323 322 322 323 323
325 325 324 323 323 323 323 324 323 323 323 323 323 323 321 319 318 318 318 318 318 317 317 317 318 319 318 318 319 319 320 320 320 321 323 323 323 323 322 322 321 320 319 318
325 326 325 324 324 325 324 324 323 322 322 322 321 321 319 318 317 317 317 316 316 315 316 317 317 316 317 318 319 319 318 317 317 317 318 319 319 319 319 317 317 316 316 315
324 323 324 324 324 325 325 323 322 321 322 321 319 317 317 317 317 317 317 316 315 315 316 316 315 315 316 316 317 316 317 318 317 318 318 318 316 316 316 316 315 314 313 313
322 323 324 324 324 324 323 322 321 321 320 318 319 318 318 317 317 314 312 311 311 313 314 314 314 314 314 315 315 316 316 315 315 315 315 315 314 314 313 312 311 311 310 310
320 320 320 322 324 323 323 322 320 320 319 319 319 318 318 317 315 313 312 311 311 311 311 311 312 312 313 312 313 313 313 312 312 312 311 311 310 309 309 309 309 309 308 308
321 319 320 324 324 323 322 320 319 318 318 318 318 317 314 313 312 313 313 312 312 311 313 313 312 312 312 312 312 311 311 310 311 310 311 311 310 310 310 309 309 308 308 308
321 320 319 322 323 323 321 319 318 316 315 316 315 315 314 313 313 313 313 313 313 313 313 312 312 312 312 312 312 311 311 311 310 311 310 310 311 310 310 310 310 310 309 309

GFSNGP_925_thetae_072.txt.gz
Theta_e
328 326 327 328 329 328 327 329 330 333 354 351 341 341 347 357 362 357 351 353 362 365 367 362 359 356 354 356 355 357 359 356 356 352 350 350 349 348 345 345 345 344 344 343
332 330 330 328 329 330 329 327 327 329 348 342 340 344 351 351 356 356 356 354 358 365 366 365 360 357 356 356 355 360 359 354 355 354 350 349 348 347 345 345 345 345 344 343
336 333 334 331 329 336 329 330 335 338 350 350 353 355 355 355 353 352 349 351 354 355 361 366 364 359 359 357 357 357 358 355 355 353 353 349 348 347 347 346 346 347 345 346
336 338 335 334 336 343 340 348 351 349 345 340 355 351 351 352 353 355 356 357 356 351 353 355 358 363 361 359 358 359 359 356 355 355 352 348 348 348 346 347 349 347 346 346
334 331 332 338 338 342 348 354 348 339 345 349 352 352 351 348 349 351 352 354 357 355 349 349 352 352 362 361 359 361 360 357 355 355 352 350 351 350 348 349 349 346 345 343
334 333 334 347 335 332 339 357 346 347 346 347 349 356 354 346 343 343 344 349 351 355 354 353 357 350 349 364 362 361 359 356 355 355 354 353 351 350 350 348 347 346 346 344
329 327 328 341 338 339 337 353 343 342 343 344 347 346 344 342 343 342 343 343 347 348 354 357 359 362 359 358 361 360 357 356 353 353 353 351 349 350 349 349 347 346 345 344
332 331 332 340 342 350 347 343 340 340 339 340 341 342 342 341 341 342 344 342 343 346 349 350 353 356 357 355 354 356 354 354 352 352 352 350 349 349 350 347 347 345 344 343
343 346 343 337 338 335 336 337 336 336 336 336 337 337 337 338 340 338 340 340 340 341 343 347 351 353 356 352 346 343 342 334 345 351 349 350 349 348 348 346 345 345 343 341
334 340 338 336 334 333 333 333 333 333 334 334 335 336 337 338 338 339 338 339 339 341 345 346 348 351 350 347 341 339 331 328 343 347 349 348 347 346 344 344 343 342 341 341
337 336 334 335 334 332 333 334 333 332 333 334 335 337 337 339 337 335 333 332 331 333 336 341 343 348 347 346 345 331 336 338 338 345 345 345 344 343 343 341 342 341 340 337
339 336 337 338 332 329 330 331 331 330 332 338 336 338 336 336 335 334 332 329 329 328 328 330 336 338 340 344 344 343 343 338 342 343 342 342 342 338 335 336 334 334 334 331
335 328 331 329 330 328 327 327 328 329 331 337 336 334 334 333 332 332 331 329 327 326 326 326 326 326 327 336 339 339 340 340 340 340 340 340 341 339 331 328 325 323 322 322
331 331 328 327 326 324 326 326 327 329 332 335 335 334 333 332 330 330 329 329 328 327 325 324 324 324 324 324 325 328 324 328 335 332 334 335 336 336 330 328 327 324 324 324
324 323 323 324 326 326 326 326 326 331 335 335 334 333 332 331 328 328 326 325 323 323 322 322 321 322 324 324 324 324 323 322 322 322 322 326 330 328 328 329 332 332 327 325
325 323 322 325 325 326 328 332 333 333 333 332 333 330 327 327 326 326 325 324 323 321 321 321 321 321 323 325 324 323 323 324 326 322 323 319 321 324 329 328 328 331 330 327
322 323 325 325 326 331 331 331 332 331 330 330 330 328 328 328 327 327 326 324 323 323 323 324 321 321 326 325 325 327 323 321 319 320 323 325 325 328 328 328 328 330 330 329
322 322 324 326 330 330 329 326 325 324 324 325 327 328 329 329 329 328 327 326 325 324 322 321 320 321 322 322 319 322 322 326 326 325 323 324 326 327 328 328 329 329 324 323
324 327 326 327 328 328 327 326 324 323 321 321 324 326 325 324 324 325 323 322 322 323 320 320 319 321 321 320 319 322 323 322 323 324 326 326 326 326 327 328 327 325 324 323
324 325 325 325 325 325 325 326 326 325 325 325 323 324 325 324 323 322 320 319 319 319 318 319 319 319 320 319 319 320 321 322 324 325 323 325 325 323 323 323 323 323 323 321
326 326 326 326 326 324 324 324 324 325 323 322 324 324 323 320 319 318 318 318 318 318 318 318 319 319 319 319 319 319 320 321 322 323 324 324 323 321 321 321 321 320 320 319
325 325 326 326 323 324 326 324 324 322 324 323 323 322 321 319 319 319 319 318 316 315 316 317 317 317 318 318 320 319 318 319 319 321 321 321 320 319 319 318 318 317 316 316
325 325 325 325 324 326 325 325 323 324 323 322 321 319 319 319 318 318 318 317 316 316 316 317 316 316 316 317 317 318 319 319 319 317 317 317 318 318 317 317 315 314 314 312
321 322 323 324 324 325 325 324 323 322 322 320 319 319 319 319 317 314 312 312 312 313 315 315 316 315 314 315 317 316 316 316 317 317 317 316 315 315 314 313 312 311 310 309
322 321 321 321 321 324 325 324 322 321 321 320 320 320 320 318 317 314 313 311 311 312 311 312 312 312 314 313 314 314 314 313 313 313 312 311 310 310 310 310 310 309 309 309
322 321 320 323 324 325 324 322 321 320 320 319 319 318 319 315 314 314 314 313 312 312 314 314 314 313 313 313 312 311 311 311 312 311 312 312 311 310 310 309 309 309 309 308
322 322 321 323 324 324 324 321 319 318 318 319 318 317 316 314 314 314 313 314 314 313 313 313 313 313 313 313 312 312 312 312 311 312 311 311 311 311 311 311 310 311 311 310

GFSNGP_925_thetae_075.txt.gz
Theta_e
330 330 329 328 328 328 327 327 332 329 352 343 340 341 358 352 343 350 353 350 355 356 355 358 356 355 356 356 358 357 356 356 354 352 352 351 348 349 347 345 346 344 343 342
337 332 331 332 334 333 337 341 337 342 348 338 339 343 352 342 349 358 355 356 360 362 359 358 356 355 356 355 356 357 357 355 356 354 351 351 349 348 347 345 345 345 344 343
338 335 333 334 350 349 350 343 350 354 353 350 354 354 353 352 355 357 358 359 355 352 353 360 357 355 355 356 355 358 357 356 356 355 352 350 350 349 347 344 344 345 344 343
337 339 339 336 337 346 345 346 344 341 345 348 351 348 347 348 351 354 355 356 355 354 355 353 352 360 354 355 355 360 359 357 356 355 352 349 349 347 346 345 345 344 345 345
336 333 333 346 337 340 343 337 343 341 337 345 339 339 345 344 344 344 346 352 351 350 352 358 358 361 361 360 358 359 360 357 356 353 354 351 349 347 346 347 346 347 346 345
332 336 338 346 334 335 333 345 341 344 336 346 333 339 342 343 343 343 343 345 348 347 347 349 350 353 356 358 360 361 360 359 356 354 353 351 348 348 347 346 347 346 345 344
331 333 346 341 333 334 340 346 345 343 343 344 333 337 343 342 341 338 340 340 340 340 348 346 346 351 356 355 352 352 356 355 342 335 331 340 348 348 348 348 347 345 345 344
339 337 342 339 339 348 343 339 340 339 337 340 340 339 339 340 338 338 338 338 337 338 341 345 348 350 353 354 349 346 342 340 331 330 333 331 330 336 346 346 345 345 345 343
338 341 338 335 337 336 335 336 336 337 335 335 336 339 338 337 337 335 333 330 330 332 335 337 341 341 350 348 346 343 338 330 327 330 331 330 330 329 344 345 344 345 343 341
336 339 338 336 334 333 333 334 334 334 334 335 336 336 337 336 334 332 330 329 328 330 329 330 334 335 348 346 344 340 333 329 329 329 331 331 329 329 343 343 343 342 341 342
335 336 337 331 332 334 335 334 332 331 335 336 336 336 336 334 333 330 329 328 327 326 326 327 326 326 333 338 344 334 331 327 330 329 337 340 342 343 342 341 341 341 342 341
336 331 329 326 330 332 329 329 331 329 336 337 336 335 333 332 333 330 329 327 326 325 325 325 325 325 325 330 336 340 337 332 334 330 337 342 339 339 339 339 339 340 337 336
335 329 327 325 326 329 326 328 329 328 334 336 335 333 332 330 331 331 330 328 326 325 323 323 323 324 324 324 325 326 327 332 335 336 338 340 338 334 332 331 330 332 330 329
330 330 332 327 324 324 326 325 326 331 335 335 333 333 332 330 330 328 327 326 325 323 323 321 322 323 325 323 324 324 323 322 323 324 327 329 330 335 331 329 324 323 323 325
330 327 322 323 327 330 331 332 333 333 333 334 333 333 331 328 327 326 325 324 322 322 322 322 321 322 324 325 323 323 324 325 322 322 323 324 323 327 329 329 325 324 323 323
324 323 326 328 331 331 331 332 331 330 331 330 330 329 328 327 326 326 325 324 323 323 324 323 320 323 325 325 324 324 321 322 323 325 325 325 324 324 325 327 328 328 325 324
322 324 327 331 331 330 329 330 328 327 327 326 326 325 327 327 327 327 327 326 325 324 322 321 320 321 322 322 318 320 323 325 320 325 326 325 326 324 325 324 326 329 328 327
321 322 327 329 329 326 328 326 325 324 323 323 321 319 321 326 326 326 325 324 322 325 321 320 319 321 321 320 318 321 322 323 323 325 323 322 324 326 327 327 327 328 328 327
326 327 327 328 328 328 327 326 325 324 325 324 322 322 323 325 325 323 321 320 319 320 318 318 318 320 319 318 319 320 321 323 325 326 326 326 326 327 327 326 324 323 323 323
327 327 327 327 326 320 321 322 326 325 325 325 325 325 323 321 320 319 318 318 318 318 318 318 318 319 318 319 320 320 321 322 323 324 324 323 323 323 324 324 322 321 320 319
328 327 327 326 323 321 320 323 321 326 325 323 323 323 320 319 318 317 318 318 317 316 316 317 317 317 319 319 319 319 320 321 323 324 322 320 321 321 320 321 320 319 318 319
326 326 326 322 319 318 318 317 320 323 324 324 323 321 320 318 317 318 319 318 316 316 316 318 317 317 318 317 320 319 319 320 320 320 320 319 318 318 318 318 317 317 316 316
325 325 325 326 325 323 318 324 321 323 323 322 320 319 319 319 318 319 318 317 315 315 315 317 317 316 316 317 318 319 319 318 318 319 319 318 318 318 316 316 315 315 314 313
322 322 322 320 322 325 324 323 322 322 321 320 319 318 319 319 320 316 311 313 313 311 315 315 315 315 314 313 315 318 318 318 317 317 317 318 316 316 314 313 312 309 309 308
323 322 322 323 322 324 324 324 322 322 321 320 320 319 319 320 318 314 312 311 311 311 312 312 312 312 313 312 313 313 312 312 317 316 313 312 310 310 310 310 309 309 309 309
324 324 323 321 324 325 324 323 322 321 322 321 321 320 319 316 314 314 314 314 311 311 312 314 314 312 313 312 311 311 311 311 311 311 311 310 310 309 309 309 309 309 308 308
325 325 324 323 324 324 324 322 320 320 319 319 318 316 316 314 313 314 313 313 313 313 313 312 312 312 313 312 312 312 311 311 311 312 311 311 311 310 310 309 309 309 309 308